HORIZONS-2

Last updated on Tue Sep 22 2026 00:03:11 GMT+0000 (Coordinated Universal Time)

1 32388U 07063B 26264.54575094 -.00000256 00000+0 00000+0 0 9991 2 32388 2.8428 79.3552 0001490 110.9713 292.7817 1.00270450 68781
UTC large
Height (km)
Speed (km/s)
/
Latitude / Longitude
Inclination (degrees)
Orbital Period (minutes)
Azimuth
Elevation
Range (km)
Doppler Factor

Next 0 passes for location: London (51.5072 / 0.1276)

No passes found over London.
HORIZONS-2